{"data":{"norad_id":57444,"epoch":"2026-05-25T03:11:05.864928Z","epoch_age_seconds":63814,"freshness":"FRESH","line1":"1 57444U 23105Q   26145.13270677 -.00028910  00000+0 -10412-2 0  9997","line2":"2 57444  43.0092 191.4702 0005483 273.0986  86.9239 15.27684977157290","mean_motion":15.27684977,"eccentricity":0.0005483,"inclination_deg":43.0092,"raan_deg":191.4702,"arg_perigee_deg":273.0986,"mean_anomaly_deg":86.9239,"bstar":-0.0010412,"rev_number":15729,"period_min":94.260271042778,"perigee_km":478.9729591424,"apogee_km":486.49659113102,"semimajor_km":6860.8717751367,"source":"CELESTRAK","updated_at":"2026-05-25T13:38:18.320942Z"}}